This is the latest recevied weather packets stored in our database for station/object YC0TBU-3. If no packets are shown the sender has not sent any weather packets the latest 10 day(s).
| Time | Temp. | Humidity | Pressure | Rain* | Wind** | Luminosity | Snow |
|---|---|---|---|---|---|---|---|
| 1777513902 | 25° C | 56% | 1014.4 hPa | - | - | - | - |
| 1777513197 | 25° C | 56% | 1013.8 hPa | - | - | - | - |
| 1777512492 | 25° C | 56% | 1014.3 hPa | - | - | - | - |
| 1777511787 | 25° C | 56% | 1014.1 hPa | - | - | - | - |
| 1777511049 | 25° C | 56% | 1014.9 hPa | - | - | - | - |
| 1777510344 | 24.44° C | 57% | 1012.6 hPa | - | - | - | - |
| 1777509639 | 24.44° C | 57% | 1013.4 hPa | - | - | - | - |
| 1777508934 | 23.89° C | 57% | 1013.5 hPa | - | - | - | - |
| 1777508229 | 23.89° C | 59% | 1014.1 hPa | - | - | - | - |
| 1777507524 | 23.89° C | 59% | 1013.7 hPa | - | - | - | - |
| 1777506840 | 23.89° C | 59% | 1012.6 hPa | - | - | - | - |
| 1777506098 | 23.33° C | 61% | 1011.5 hPa | - | - | - | - |
| 1777505394 | 23.33° C | 61% | 1013.6 hPa | - | - | - | - |
| 1777504689 | 23.33° C | 61% | 1012.2 hPa | - | - | - | - |
| 1777503989 | 23.89° C | 60% | 1011.8 hPa | - | - | - | - |
| 1777503262 | 23.33° C | 60% | 1013.1 hPa | - | - | - | - |
| 1777502557 | 23.33° C | 60% | 1013.2 hPa | - | - | - | - |
| 1777501852 | 23.33° C | 60% | 1012.1 hPa | - | - | - | - |
| 1777501153 | 23.89° C | 59% | 1012.1 hPa | - | - | - | - |
| 1777500426 | 24.44° C | 58% | 1011.7 hPa | - | - | - | - |
| 1777499721 | 23.89° C | 58% | 1012 hPa | - | - | - | - |
| 1777499016 | 23.89° C | 58% | 1011.6 hPa | - | - | - | - |
| 1777498311 | 23.89° C | 58% | 1011.7 hPa | - | - | - | - |
| 1777497612 | 24.44° C | 58% | 1011.5 hPa | - | - | - | - |
| 1777496886 | 24.44° C | 58% | 1011.2 hPa | - | - | - | - |
* Rain since midnight (hover to see other rain measurements)
** Current wind speed in m/s (hover to see current wind gust speed)